,,,PA_Meas_PMT16A,,PR_Meas_QMR101_102,,RH_Meas_QMH101,,SR_Meas_QMS101,,TA_Meas_QMH101,,GenWind,,GenWind,
date,time,status,PA,status,PR,status,RH,status,SR,status,TA,status,DirAvg,status,SpdAvg,
2012-02-17, 00:00:04,VALID,998.507,VALID,0,VALID,92.9288,VALID,0,VALID,23.8768,VALID,24,VALID,0,
2012-02-17, 00:01:04,VALID,998.469,VALID,0,VALID,92.7991,VALID,0,VALID,23.8768,VALID,24,VALID,0,
2012-02-17, 00:02:04,VALID,998.408,VALID,0,VALID,92.822,VALID,0,VALID,23.8573,VALID,24,VALID,0,
2012-02-17, 00:03:04,VALID,998.419,VALID,0,VALID,92.8754,VALID,0.104696,VALID,23.8573,VALID,24,VALID,0,
2012-02-17, 00:04:04,VALID,998.387,VALID,0,VALID,92.8448,VALID,0,VALID,23.836,VALID,24,VALID,0,
2012-02-17, 00:05:04,VALID,998.4,VALID,0,VALID,92.7914,VALID,0.104696,VALID,23.836,VALID,24,VALID,0,
2012-02-17, 00:06:04,VALID,998.369,VALID,0,VALID,92.7533,VALID,0,VALID,23.8378,VALID,24,VALID,0,
2012-02-17, 00:07:04,VALID,998.36,VALID,0,VALID,92.738,VALID,0,VALID,23.8378,VALID,24,VALID,0,
2012-02-17, 00:08:04,VALID,998.351,VALID,0,VALID,92.7457,VALID,0,VALID,23.8378,VALID,24,VALID,0,
2012-02-17, 00:09:04,VALID,998.35,VALID,0,VALID,92.8067,VALID,0,VALID,23.836,VALID,24,VALID,0,
2012-02-17, 00:10:04,VALID,998.329,VALID,0,VALID,92.8906,VALID,0,VALID,23.8573,VALID,24,VALID,0,
2012-02-17, 00:11:04,VALID,998.316,VALID,0,VALID,92.883,VALID,0,VALID,23.836,VALID,27,VALID,0,
2012-02-17, 00:12:04,VALID,998.299,VALID,0,VALID,92.8906,VALID,0,VALID,23.8573,VALID,27,VALID,0,
2012-02-17, 00:13:04,VALID,998.275,VALID,0,VALID,92.9517,VALID,0,VALID,23.8768,VALID,66,VALID,0,
2012-02-17, 00:14:04,VALID,998.297,VALID,0,VALID,92.9669,VALID,0,VALID,23.8963,VALID,69,VALID,0,
2012-02-17, 00:15:04,VALID,998.232,VALID,0,VALID,92.9135,VALID,0,VALID,23.8768,VALID,85,VALID,0,
2012-02-17, 00:16:04,VALID,998.24,VALID,0,VALID,92.9364,VALID,0,VALID,23.8963,VALID,88,VALID,0.872266,
2012-02-17, 00:17:04,VALID,998.197,VALID,0,VALID,92.9593,VALID,0,VALID,23.8963,VALID,93,VALID,0.782031,
2012-02-17, 00:18:04,VALID,998.221,VALID,0,VALID,92.9898,VALID,0,VALID,23.8555,VALID,91,VALID,0.742578,
2012-02-17, 00:19:04,VALID,998.215,VALID,0,VALID,92.9822,VALID,0,VALID,23.8963,VALID,78,VALID,1.01016,
2012-02-17, 00:20:04,VALID,998.215,VALID,0,VALID,92.944,VALID,0.104696,VALID,23.8555,VALID,80,VALID,0.471484,
2012-02-17, 00:21:04,VALID,998.179,VALID,0,VALID,92.8754,VALID,0,VALID,23.8768,VALID,79,VALID,0.390234,
2012-02-17, 00:22:04,VALID,998.175,VALID,0,VALID,92.8143,VALID,0.104696,VALID,23.8573,VALID,79,VALID,0.597656,
2012-02-17, 00:23:04,VALID,998.152,VALID,0,VALID,92.738,VALID,0,VALID,23.8378,VALID,67,VALID,0.724219,
2012-02-17, 00:24:04,VALID,998.1,VALID,0,VALID,92.6999,VALID,0,VALID,23.797,VALID,57,VALID,0.398828,
2012-02-17, 00:25:04,VALID,998.097,VALID,0,VALID,92.6388,VALID,0,VALID,23.7579,VALID,57,VALID,0.462891,
2012-02-17, 00:26:04,VALID,998.119,VALID,0,VALID,92.6617,VALID,0.104696,VALID,23.7384,VALID,57,VALID,0.344141,
2012-02-17, 00:27:04,VALID,998.067,VALID,0,VALID,92.6541,VALID,0.104696,VALID,23.6994,VALID,57,VALID,0,
2012-02-17, 00:28:04,VALID,998.035,VALID,0,VALID,92.6846,VALID,0.104696,VALID,23.7207,VALID,57,VALID,0,
2012-02-17, 00:29:04,VALID,998.034,VALID,0,VALID,92.7609,VALID,0,VALID,23.7207,VALID,57,VALID,0,
2012-02-17, 00:30:04,VALID,997.994,VALID,0,VALID,92.8525,VALID,0,VALID,23.7012,VALID,57,VALID,0,
2012-02-17, 00:31:04,VALID,998.011,VALID,0,VALID,92.9211,VALID,0,VALID,23.6799,VALID,57,VALID,0,
2012-02-17, 00:32:04,VALID,997.965,VALID,0,VALID,92.9211,VALID,0.104696,VALID,23.6799,VALID,57,VALID,0.222656,
2012-02-17, 00:33:04,VALID,997.971,VALID,0,VALID,92.9822,VALID,0.104696,VALID,23.6994,VALID,57,VALID,0.474219,
2012-02-17, 00:34:04,VALID,997.988,VALID,0,VALID,92.9822,VALID,0,VALID,23.6799,VALID,57,VALID,0.479297,
2012-02-17, 00:35:04,VALID,997.988,VALID,0,VALID,92.9517,VALID,0.104696,VALID,23.6799,VALID,57,VALID,0.452734,
2012-02-17, 00:36:04,VALID,997.997,VALID,0,VALID,92.9974,VALID,0.104696,VALID,23.6604,VALID,57,VALID,0.503906,
2012-02-17, 00:37:04,VALID,997.959,VALID,0,VALID,93.0585,VALID,0,VALID,23.6817,VALID,57,VALID,0.436719,
2012-02-17, 00:38:04,VALID,997.956,VALID,0,VALID,93.1043,VALID,0,VALID,23.6604,VALID,57,VALID,0.487109,
2012-02-17, 00:39:04,VALID,997.898,VALID,0,VALID,93.1271,VALID,0,VALID,23.6604,VALID,57,VALID,0.40625,
2012-02-17, 00:40:04,VALID,997.907,VALID,0,VALID,93.0585,VALID,0,VALID,23.6622,VALID,57,VALID,0.362109,
2012-02-17, 00:41:04,VALID,997.922,VALID,0,VALID,93.0203,VALID,0.104696,VALID,23.6409,VALID,57,VALID,0,
2012-02-17, 00:42:04,VALID,997.938,VALID,0,VALID,93.0051,VALID,0,VALID,23.6214,VALID,57,VALID,0,
2012-02-17, 00:43:04,VALID,997.922,VALID,0,VALID,93.0661,VALID,0,VALID,23.6214,VALID,57,VALID,0,
2012-02-17, 00:44:04,VALID,997.954,VALID,0,VALID,93.1271,VALID,0,VALID,23.6214,VALID,57,VALID,0,
2012-02-17, 00:45:04,VALID,997.948,VALID,0,VALID,93.234,VALID,0,VALID,23.6622,VALID,57,VALID,0,
2012-02-17, 00:46:04,VALID,997.914,VALID,0,VALID,93.3255,VALID,0,VALID,23.6799,VALID,57,VALID,0,
2012-02-17, 00:47:04,VALID,997.874,VALID,0,VALID,93.3331,VALID,0,VALID,23.7189,VALID,57,VALID,0,
2012-02-17, 00:48:04,VALID,997.869,VALID,0,VALID,93.3484,VALID,0,VALID,23.7189,VALID,57,VALID,0,
2012-02-17, 00:49:04,VALID,997.871,VALID,0,VALID,93.3484,VALID,0,VALID,23.7597,VALID,57,VALID,0,
2012-02-17, 00:50:04,VALID,997.878,VALID,0,VALID,93.3179,VALID,0,VALID,23.7988,VALID,57,VALID,0,
2012-02-17, 00:51:04,VALID,997.884,VALID,0,VALID,93.2111,VALID,0,VALID,23.7988,VALID,57,VALID,0,
2012-02-17, 00:52:04,VALID,997.852,VALID,0,VALID,93.1271,VALID,0,VALID,23.7988,VALID,57,VALID,0,
2012-02-17, 00:53:04,VALID,997.882,VALID,0,VALID,93.0966,VALID,0,VALID,23.7988,VALID,57,VALID,0,
2012-02-17, 00:54:04,VALID,997.862,VALID,0,VALID,93.0737,VALID,0,VALID,23.7988,VALID,57,VALID,0,
2012-02-17, 00:55:04,VALID,997.885,VALID,0,VALID,93.0356,VALID,0,VALID,23.7793,VALID,57,VALID,0,
2012-02-17, 00:56:04,VALID,997.906,VALID,0,VALID,93.0127,VALID,0,VALID,23.7793,VALID,57,VALID,0,
2012-02-17, 00:57:04,VALID,997.906,VALID,0,VALID,92.9822,VALID,0,VALID,23.7597,VALID,57,VALID,0,
2012-02-17, 00:58:04,VALID,997.881,VALID,0,VALID,92.944,VALID,0,VALID,23.7402,VALID,57,VALID,0,
2012-02-17, 00:59:04,VALID,997.869,VALID,0,VALID,92.9593,VALID,0,VALID,23.7402,VALID,57,VALID,0,
2012-02-17, 01:00:04,VALID,997.873,VALID,0,VALID,93.0203,VALID,0,VALID,23.7402,VALID,57,VALID,0,
2012-02-17, 01:01:04,VALID,997.872,VALID,0,VALID,93.0203,VALID,0,VALID,23.7402,VALID,57,VALID,0,
2012-02-17, 01:02:04,VALID,997.87,VALID,0,VALID,93.0203,VALID,0,VALID,23.7207,VALID,57,VALID,0,
2012-02-17, 01:03:04,VALID,997.876,VALID,0,VALID,92.9745,VALID,0,VALID,23.7012,VALID,57,VALID,0,
2012-02-17, 01:04:04,VALID,997.847,VALID,0,VALID,92.9364,VALID,0,VALID,23.6817,VALID,57,VALID,0,
2012-02-17, 01:05:04,VALID,997.817,VALID,0,VALID,92.9822,VALID,0,VALID,23.6622,VALID,57,VALID,0,
2012-02-17, 01:06:04,VALID,997.826,VALID,0,VALID,92.9593,VALID,0,VALID,23.6427,VALID,57,VALID,0,
2012-02-17, 01:07:04,VALID,997.826,VALID,0,VALID,93.0585,VALID,0,VALID,23.6427,VALID,57,VALID,0,
2012-02-17, 01:08:04,VALID,997.826,VALID,0,VALID,93.2034,VALID,0,VALID,23.6604,VALID,57,VALID,0,
2012-02-17, 01:09:04,VALID,997.784,VALID,0,VALID,93.295,VALID,0,VALID,23.7012,VALID,57,VALID,0,
2012-02-17, 01:10:04,VALID,997.786,VALID,0,VALID,93.3103,VALID,0,VALID,23.7207,VALID,57,VALID,0,
2012-02-17, 01:11:04,VALID,997.789,VALID,0,VALID,93.2874,VALID,0,VALID,23.7207,VALID,57,VALID,0,
2012-02-17, 01:12:04,VALID,997.753,VALID,0,VALID,93.3179,VALID,0,VALID,23.7402,VALID,57,VALID,0,
2012-02-17, 01:13:04,VALID,997.77,VALID,0,VALID,93.356,VALID,0,VALID,23.7597,VALID,57,VALID,0,
2012-02-17, 01:14:04,VALID,997.734,VALID,0,VALID,93.3637,VALID,0,VALID,23.7793,VALID,57,VALID,0,
2012-02-17, 01:15:04,VALID,997.709,VALID,0,VALID,93.3637,VALID,0,VALID,23.7988,VALID,57,VALID,0,
2012-02-17, 01:16:04,VALID,997.679,VALID,0,VALID,93.356,VALID,0,VALID,23.8183,VALID,57,VALID,0,
2012-02-17, 01:17:04,VALID,997.688,VALID,0,VALID,93.2568,VALID,0,VALID,23.8165,VALID,57,VALID,0,
2012-02-17, 01:18:04,VALID,997.72,VALID,0,VALID,93.1958,VALID,0,VALID,23.8378,VALID,57,VALID,0,
2012-02-17, 01:19:04,VALID,997.705,VALID,0,VALID,93.1424,VALID,0,VALID,23.8165,VALID,57,VALID,0,
2012-02-17, 01:20:04,VALID,997.686,VALID,0,VALID,93.1119,VALID,0,VALID,23.8183,VALID,57,VALID,0,
2012-02-17, 01:21:04,VALID,997.65,VALID,0,VALID,93.0966,VALID,0,VALID,23.8378,VALID,57,VALID,0,
2012-02-17, 01:22:04,VALID,997.639,VALID,0,VALID,93.1805,VALID,0,VALID,23.8573,VALID,118,VALID,0.389844,
2012-02-17, 01:23:04,VALID,997.634,VALID,0,VALID,93.2263,VALID,0,VALID,23.8963,VALID,127,VALID,0.690625,
2012-02-17, 01:24:04,VALID,997.639,VALID,0,VALID,93.234,VALID,0,VALID,23.8963,VALID,127,VALID,0.0863281,
2012-02-17, 01:25:04,VALID,997.638,VALID,0,VALID,93.1271,VALID,0,VALID,23.8963,VALID,113,VALID,0.449609,
2012-02-17, 01:26:04,VALID,997.652,VALID,0,VALID,93.0737,VALID,0,VALID,23.8963,VALID,23,VALID,0.489062,
2012-02-17, 01:27:04,VALID,997.614,VALID,0,VALID,93.0661,VALID,0,VALID,23.8963,VALID,23,VALID,0.264062,
2012-02-17, 01:28:04,VALID,997.61,VALID,0,VALID,93.0814,VALID,0,VALID,23.8963,VALID,23,VALID,0,
2012-02-17, 01:29:04,VALID,997.58,VALID,0,VALID,93.0432,VALID,0,VALID,23.8768,VALID,23,VALID,0,
2012-02-17, 01:30:04,VALID,997.525,VALID,0,VALID,93.0432,VALID,0,VALID,23.8573,VALID,23,VALID,0,
2012-02-17, 01:31:04,VALID,997.526,VALID,0,VALID,93.028,VALID,0,VALID,23.8573,VALID,23,VALID,0,
2012-02-17, 01:32:04,VALID,997.477,VALID,0,VALID,93.028,VALID,0,VALID,23.8573,VALID,23,VALID,0,
2012-02-17, 01:33:04,VALID,997.436,VALID,0,VALID,93.028,VALID,0,VALID,23.8378,VALID,23,VALID,0,
2012-02-17, 01:34:04,VALID,997.475,VALID,0,VALID,93.0661,VALID,0,VALID,23.8573,VALID,54,VALID,0.2625,
2012-02-17, 01:35:04,VALID,997.471,VALID,0,VALID,93.0966,VALID,0,VALID,23.8768,VALID,129,VALID,0.848828,
2012-02-17, 01:36:04,VALID,997.407,VALID,0,VALID,93.0585,VALID,0,VALID,23.8555,VALID,129,VALID,0.917969,
2012-02-17, 01:37:04,VALID,997.466,VALID,0,VALID,92.9898,VALID,0,VALID,23.8963,VALID,128,VALID,1.07461,
2012-02-17, 01:38:04,VALID,997.468,VALID,0,VALID,92.9288,VALID,0,VALID,23.8963,VALID,130,VALID,0.925,
2012-02-17, 01:39:04,VALID,997.434,VALID,0,VALID,92.9211,VALID,0,VALID,23.9159,VALID,130,VALID,0.974609,
2012-02-17, 01:40:04,VALID,997.415,VALID,0,VALID,92.8906,VALID,0,VALID,23.9354,VALID,130,VALID,0.882031,
2012-02-17, 01:41:04,VALID,997.38,VALID,0,VALID,92.8372,VALID,0,VALID,23.9336,VALID,119,VALID,0.591406,
2012-02-17, 01:42:04,VALID,997.365,VALID,0,VALID,92.822,VALID,0,VALID,23.9744,VALID,109,VALID,0.576953,
2012-02-17, 01:43:04,VALID,997.358,VALID,0,VALID,92.7075,VALID,0,VALID,23.9336,VALID,108,VALID,0.307422,
2012-02-17, 01:44:04,VALID,997.367,VALID,0,VALID,92.616,VALID,0,VALID,23.9354,VALID,109,VALID,0.436719,
2012-02-17, 01:45:04,VALID,997.33,VALID,0,VALID,92.6541,VALID,0,VALID,23.9354,VALID,12,VALID,0.503906,
2012-02-17, 01:46:04,VALID,997.314,VALID,0,VALID,92.7457,VALID,0,VALID,23.914,VALID,12,VALID,0.454297,
2012-02-17, 01:47:04,VALID,997.303,VALID,0,VALID,92.8296,VALID,0,VALID,23.9354,VALID,12,VALID,0.494141,
2012-02-17, 01:48:04,VALID,997.318,VALID,0,VALID,92.883,VALID,0,VALID,23.914,VALID,12,VALID,0.219141,
2012-02-17, 01:49:04,VALID,997.286,VALID,0,VALID,92.9288,VALID,0,VALID,23.9354,VALID,12,VALID,0,
2012-02-17, 01:50:04,VALID,997.308,VALID,0,VALID,92.8983,VALID,0,VALID,23.9159,VALID,12,VALID,0,
2012-02-17, 01:51:04,VALID,997.298,VALID,0,VALID,92.8983,VALID,0,VALID,23.9159,VALID,12,VALID,0,
2012-02-17, 01:52:04,VALID,997.32,VALID,0,VALID,92.8983,VALID,0,VALID,23.9159,VALID,12,VALID,0,
2012-02-17, 01:53:04,VALID,997.268,VALID,0,VALID,92.944,VALID,0,VALID,23.9159,VALID,12,VALID,0,
2012-02-17, 01:54:04,VALID,997.327,VALID,0,VALID,92.9669,VALID,0,VALID,23.8945,VALID,12,VALID,0.348047,
2012-02-17, 01:55:04,VALID,997.347,VALID,0,VALID,93.0432,VALID,0,VALID,23.9159,VALID,289,VALID,0.808203,
2012-02-17, 01:56:04,VALID,997.331,VALID,0,VALID,93.089,VALID,0,VALID,23.9159,VALID,289,VALID,0.405078,
2012-02-17, 01:57:04,VALID,997.363,VALID,0,VALID,93.0661,VALID,0,VALID,23.875,VALID,289,VALID,0.228516,
2012-02-17, 01:58:04,VALID,997.34,VALID,0,VALID,93.089,VALID,0,VALID,23.8963,VALID,289,VALID,0.152344,
2012-02-17, 01:59:04,VALID,997.332,VALID,0,VALID,93.1348,VALID,0.104696,VALID,23.8963,VALID,289,VALID,0.779297,
2012-02-17, 02:00:04,VALID,997.302,VALID,0,VALID,93.1424,VALID,0,VALID,23.8768,VALID,289,VALID,0.688672,
2012-02-17, 02:01:04,VALID,997.281,VALID,0,VALID,93.15,VALID,0,VALID,23.8768,VALID,289,VALID,0.373437,
2012-02-17, 02:02:04,VALID,997.282,VALID,0,VALID,93.1729,VALID,0,VALID,23.8768,VALID,289,VALID,0.00234375,
2012-02-17, 02:03:04,VALID,997.246,VALID,0,VALID,93.2187,VALID,0,VALID,23.8768,VALID,314,VALID,0,
2012-02-17, 02:04:04,VALID,997.25,VALID,0,VALID,93.2034,VALID,0,VALID,23.8768,VALID,319,VALID,0.35,
2012-02-17, 02:05:04,VALID,997.304,VALID,0,VALID,93.1119,VALID,0,VALID,23.8573,VALID,320,VALID,0.358984,
2012-02-17, 02:06:04,VALID,997.28,VALID,0,VALID,93.0966,VALID,0,VALID,23.8378,VALID,320,VALID,0.310156,
2012-02-17, 02:07:04,VALID,997.299,VALID,0,VALID,93.089,VALID,0,VALID,23.797,VALID,320,VALID,0.266797,
2012-02-17, 02:08:04,VALID,997.281,VALID,0,VALID,93.1195,VALID,0,VALID,23.7775,VALID,320,VALID,0,
2012-02-17, 02:09:04,VALID,997.298,VALID,0,VALID,93.2034,VALID,0,VALID,23.7775,VALID,320,VALID,0.616016,
2012-02-17, 02:10:04,VALID,997.292,VALID,0,VALID,93.2645,VALID,0,VALID,23.8183,VALID,320,VALID,0.545703,
2012-02-17, 02:11:04,VALID,997.265,VALID,0,VALID,93.3179,VALID,0,VALID,23.7793,VALID,320,VALID,0.545313,
2012-02-17, 02:12:04,VALID,997.3,VALID,0,VALID,93.3789,VALID,0,VALID,23.7579,VALID,320,VALID,0.433594,
2012-02-17, 02:13:04,VALID,997.316,VALID,0,VALID,93.3713,VALID,0,VALID,23.7579,VALID,320,VALID,0.511328,
2012-02-17, 02:14:04,VALID,997.338,VALID,0,VALID,93.3484,VALID,0,VALID,23.7402,VALID,320,VALID,0.515234,
2012-02-17, 02:15:04,VALID,997.351,VALID,0,VALID,93.3103,VALID,0,VALID,23.7012,VALID,320,VALID,0.237891,
2012-02-17, 02:16:04,VALID,997.354,VALID,0,VALID,93.2797,VALID,0,VALID,23.6817,VALID,320,VALID,0,
2012-02-17, 02:17:04,VALID,997.339,VALID,0,VALID,93.3026,VALID,0,VALID,23.6622,VALID,347,VALID,0.535937,
2012-02-17, 02:18:04,VALID,997.336,VALID,0,VALID,93.3789,VALID,0,VALID,23.6214,VALID,347,VALID,0.460547,
2012-02-17, 02:19:04,VALID,997.318,VALID,0,VALID,93.3866,VALID,0,VALID,23.6427,VALID,79,VALID,0.663281,
2012-02-17, 02:20:04,VALID,997.335,VALID,0,VALID,93.356,VALID,0,VALID,23.6232,VALID,96,VALID,0.609375,
2012-02-17, 02:21:04,VALID,997.336,VALID,0,VALID,93.3331,VALID,0,VALID,23.5841,VALID,96,VALID,0.622656,
2012-02-17, 02:22:04,VALID,997.347,VALID,0,VALID,93.356,VALID,0,VALID,23.5646,VALID,96,VALID,0.438281,
2012-02-17, 02:23:04,VALID,997.341,VALID,0,VALID,93.3866,VALID,0,VALID,23.5646,VALID,96,VALID,0.5,
2012-02-17, 02:24:04,VALID,997.338,VALID,0,VALID,93.3866,VALID,0,VALID,23.5238,VALID,96,VALID,0.303125,
2012-02-17, 02:25:04,VALID,997.388,VALID,0,VALID,93.4094,VALID,0,VALID,23.5238,VALID,96,VALID,0.491797,
2012-02-17, 02:26:04,VALID,997.387,VALID,0,VALID,93.4781,VALID,0,VALID,23.5451,VALID,96,VALID,0.518359,
2012-02-17, 02:27:04,VALID,997.398,VALID,0,VALID,93.5468,VALID,0,VALID,23.5451,VALID,96,VALID,0.45625,
2012-02-17, 02:28:04,VALID,997.402,VALID,0,VALID,93.5315,VALID,0,VALID,23.5646,VALID,96,VALID,0.224219,
2012-02-17, 02:29:04,VALID,997.414,VALID,0,VALID,93.5391,VALID,0,VALID,23.5646,VALID,96,VALID,0,
2012-02-17, 02:30:04,VALID,997.413,VALID,0,VALID,93.4934,VALID,0,VALID,23.5451,VALID,96,VALID,0,
2012-02-17, 02:31:04,VALID,997.458,VALID,0,VALID,93.4476,VALID,0,VALID,23.5256,VALID,96,VALID,0,
2012-02-17, 02:32:04,VALID,997.427,VALID,0,VALID,93.501,VALID,0,VALID,23.5043,VALID,96,VALID,0,
2012-02-17, 02:33:04,VALID,997.456,VALID,0,VALID,93.5544,VALID,0,VALID,23.5451,VALID,96,VALID,0,
2012-02-17, 02:34:04,VALID,997.436,VALID,0,VALID,93.5773,VALID,0,VALID,23.5043,VALID,96,VALID,0,
2012-02-17, 02:35:04,VALID,997.455,VALID,0,VALID,93.5773,VALID,0,VALID,23.5451,VALID,96,VALID,0,
2012-02-17, 02:36:04,VALID,997.496,VALID,0,VALID,93.6078,VALID,0,VALID,23.5451,VALID,96,VALID,0,
2012-02-17, 02:37:04,VALID,997.502,VALID,0,VALID,93.6231,VALID,0,VALID,23.5451,VALID,96,VALID,0,
2012-02-17, 02:38:04,VALID,997.511,VALID,0,VALID,93.646,VALID,0,VALID,23.5238,VALID,96,VALID,0,
2012-02-17, 02:39:04,VALID,997.526,VALID,0,VALID,93.6307,VALID,0,VALID,23.5451,VALID,96,VALID,0,
2012-02-17, 02:40:04,VALID,997.512,VALID,0,VALID,93.6383,VALID,0,VALID,23.5256,VALID,96,VALID,0,
2012-02-17, 02:41:04,VALID,997.535,VALID,0,VALID,93.6841,VALID,0,VALID,23.5238,VALID,96,VALID,0,
2012-02-17, 02:42:04,VALID,997.536,VALID,0,VALID,93.7223,VALID,0,VALID,23.5433,VALID,96,VALID,0,
2012-02-17, 02:43:04,VALID,997.51,VALID,0,VALID,93.7223,VALID,0,VALID,23.5433,VALID,96,VALID,0,
2012-02-17, 02:44:04,VALID,997.511,VALID,0,VALID,93.7375,VALID,0,VALID,23.5433,VALID,96,VALID,0,
2012-02-17, 02:45:04,VALID,997.495,VALID,0,VALID,93.7375,VALID,0,VALID,23.5628,VALID,96,VALID,0,
2012-02-17, 02:46:04,VALID,997.481,VALID,0,VALID,93.768,VALID,0,VALID,23.6036,VALID,96,VALID,0,
2012-02-17, 02:47:04,VALID,997.46,VALID,0,VALID,93.8062,VALID,0,VALID,23.6232,VALID,96,VALID,0,
2012-02-17, 02:48:04,VALID,997.46,VALID,0,VALID,93.7909,VALID,0,VALID,23.6232,VALID,96,VALID,0,
2012-02-17, 02:49:04,VALID,997.459,VALID,0,VALID,93.7375,VALID,0,VALID,23.6232,VALID,96,VALID,0,
2012-02-17, 02:50:04,VALID,997.472,VALID,0,VALID,93.7146,VALID,0,VALID,23.6232,VALID,96,VALID,0,
2012-02-17, 02:51:04,VALID,997.484,VALID,0,VALID,93.7146,VALID,0,VALID,23.6214,VALID,96,VALID,0,
2012-02-17, 02:52:04,VALID,997.479,VALID,0,VALID,93.6841,VALID,0,VALID,23.6427,VALID,96,VALID,0,
2012-02-17, 02:53:04,VALID,997.488,VALID,0,VALID,93.6612,VALID,0,VALID,23.6214,VALID,96,VALID,0,
2012-02-17, 02:54:04,VALID,997.454,VALID,0,VALID,93.6688,VALID,0,VALID,23.6427,VALID,159,VALID,0.910547,
2012-02-17, 02:55:04,VALID,997.418,VALID,0,VALID,93.7757,VALID,0,VALID,23.7012,VALID,159,VALID,0.684766,
2012-02-17, 02:56:04,VALID,997.42,VALID,0,VALID,93.8138,VALID,0,VALID,23.7207,VALID,159,VALID,0.642969,
2012-02-17, 02:57:04,VALID,997.408,VALID,0,VALID,93.7757,VALID,0,VALID,23.7402,VALID,159,VALID,0.699219,
2012-02-17, 02:58:04,VALID,997.385,VALID,0,VALID,93.7299,VALID,0,VALID,23.7384,VALID,159,VALID,0.457422,
2012-02-17, 02:59:04,VALID,997.367,VALID,0,VALID,93.6383,VALID,0,VALID,23.7597,VALID,159,VALID,0.397656,
2012-02-17, 03:00:04,VALID,997.393,VALID,0,VALID,93.562,VALID,0,VALID,23.7579,VALID,159,VALID,0.445313,
2012-02-17, 03:01:04,VALID,997.391,VALID,0,VALID,93.4781,VALID,0,VALID,23.7597,VALID,159,VALID,0.123047,
2012-02-17, 03:02:04,VALID,997.397,VALID,0,VALID,93.4094,VALID,0,VALID,23.7597,VALID,159,VALID,0,
2012-02-17, 03:03:04,VALID,997.363,VALID,0,VALID,93.3179,VALID,0,VALID,23.7402,VALID,159,VALID,0,
2012-02-17, 03:04:04,VALID,997.404,VALID,0,VALID,93.3255,VALID,0,VALID,23.7189,VALID,159,VALID,0,
2012-02-17, 03:05:04,VALID,997.362,VALID,0,VALID,93.2797,VALID,0,VALID,23.6994,VALID,159,VALID,0,
2012-02-17, 03:06:04,VALID,997.355,VALID,0,VALID,93.2568,VALID,0,VALID,23.7012,VALID,159,VALID,0,
2012-02-17, 03:07:04,VALID,997.368,VALID,0,VALID,93.2568,VALID,0,VALID,23.6817,VALID,159,VALID,0,
2012-02-17, 03:08:04,VALID,997.366,VALID,0,VALID,93.2721,VALID,0,VALID,23.6622,VALID,159,VALID,0,
2012-02-17, 03:09:04,VALID,997.398,VALID,0,VALID,93.2874,VALID,0,VALID,23.6427,VALID,159,VALID,0,
2012-02-17, 03:10:04,VALID,997.357,VALID,0,VALID,93.3331,VALID,0,VALID,23.6019,VALID,159,VALID,0.595312,
2012-02-17, 03:11:04,VALID,997.359,VALID,0,VALID,93.3866,VALID,0,VALID,23.6232,VALID,159,VALID,0.36875,
2012-02-17, 03:12:04,VALID,997.395,VALID,0,VALID,93.4552,VALID,0,VALID,23.5823,VALID,159,VALID,0.266016,
2012-02-17, 03:13:04,VALID,997.397,VALID,0,VALID,93.5163,VALID,0,VALID,23.5823,VALID,159,VALID,0.0398437,
2012-02-17, 03:14:04,VALID,997.404,VALID,0,VALID,93.562,VALID,0,VALID,23.5823,VALID,159,VALID,0,
2012-02-17, 03:15:04,VALID,997.422,VALID,0,VALID,93.6154,VALID,0,VALID,23.5823,VALID,159,VALID,0,
2012-02-17, 03:16:04,VALID,997.454,VALID,0,VALID,93.6612,VALID,0,VALID,23.6019,VALID,159,VALID,0,
2012-02-17, 03:17:04,VALID,997.461,VALID,0,VALID,93.6917,VALID,0,VALID,23.6019,VALID,159,VALID,0,
2012-02-17, 03:18:04,VALID,997.445,VALID,0,VALID,93.7375,VALID,0,VALID,23.6232,VALID,159,VALID,0,
2012-02-17, 03:19:04,VALID,997.47,VALID,0,VALID,93.7604,VALID,0,VALID,23.6232,VALID,159,VALID,0.504297,
2012-02-17, 03:20:04,VALID,997.476,VALID,0,VALID,93.8291,VALID,0,VALID,23.6427,VALID,159,VALID,0.596875,
2012-02-17, 03:21:04,VALID,997.527,VALID,0,VALID,93.8901,VALID,0.104696,VALID,23.6409,VALID,327,VALID,0.555078,
2012-02-17, 03:22:04,VALID,997.575,VALID,0,VALID,93.8977,VALID,0,VALID,23.6409,VALID,327,VALID,0.676953,
2012-02-17, 03:23:04,VALID,997.58,VALID,0,VALID,93.9283,VALID,0,VALID,23.6604,VALID,308,VALID,0.713672,
2012-02-17, 03:24:04,VALID,997.613,VALID,0,VALID,93.9511,VALID,0,VALID,23.7012,VALID,308,VALID,0.601563,
2012-02-17, 03:25:04,VALID,997.623,VALID,0,VALID,93.974,VALID,0,VALID,23.6994,VALID,308,VALID,0.466016,
2012-02-17, 03:26:04,VALID,997.633,VALID,0,VALID,93.9664,VALID,0,VALID,23.7207,VALID,308,VALID,0.385547,
2012-02-17, 03:27:04,VALID,997.66,VALID,0,VALID,93.9969,VALID,0,VALID,23.7402,VALID,308,VALID,0.628516,
2012-02-17, 03:28:04,VALID,997.694,VALID,0,VALID,94.0045,VALID,0,VALID,23.7189,VALID,324,VALID,1.45547,
2012-02-17, 03:29:04,VALID,997.698,VALID,0,VALID,94.0351,VALID,0,VALID,23.7384,VALID,330,VALID,1.46211,
2012-02-17, 03:30:04,VALID,997.667,VALID,0,VALID,94.0274,VALID,0,VALID,23.7597,VALID,333,VALID,1.3918,
2012-02-17, 03:31:04,VALID,997.68,VALID,0,VALID,94.0198,VALID,0,VALID,23.7597,VALID,329,VALID,0.602734,
2012-02-17, 03:32:04,VALID,997.665,VALID,0,VALID,94.0198,VALID,0,VALID,23.7579,VALID,321,VALID,1.08086,
2012-02-17, 03:33:04,VALID,997.72,VALID,0,VALID,93.9893,VALID,0,VALID,23.7597,VALID,311,VALID,1.48828,
2012-02-17, 03:34:04,VALID,997.727,VALID,0,VALID,93.9435,VALID,0,VALID,23.7579,VALID,324,VALID,1.54648,
2012-02-17, 03:35:04,VALID,997.73,VALID,0,VALID,93.852,VALID,0,VALID,23.7988,VALID,5,VALID,1.54453,
2012-02-17, 03:36:04,VALID,997.74,VALID,0,VALID,93.707,VALID,0,VALID,23.7988,VALID,4,VALID,1.35977,
2012-02-17, 03:37:04,VALID,997.762,VALID,0,VALID,93.5697,VALID,0,VALID,23.7988,VALID,336,VALID,1.25937,
2012-02-17, 03:38:04,VALID,997.725,VALID,0,VALID,93.3866,VALID,0,VALID,23.8183,VALID,353,VALID,1.66094,
2012-02-17, 03:39:04,VALID,997.712,VALID,0,VALID,93.2492,VALID,0,VALID,23.797,VALID,327,VALID,1.10508,
2012-02-17, 03:40:04,VALID,997.723,VALID,0,VALID,93.1805,VALID,0,VALID,23.8183,VALID,309,VALID,0.710156,
2012-02-17, 03:41:04,VALID,997.745,VALID,0,VALID,93.1043,VALID,0,VALID,23.797,VALID,327,VALID,1.0457,
2012-02-17, 03:42:04,VALID,997.752,VALID,0,VALID,93.0356,VALID,0,VALID,23.797,VALID,276,VALID,0.0289063,
2012-02-17, 03:43:04,VALID,997.728,VALID,0,VALID,92.9745,VALID,0,VALID,23.8183,VALID,346,VALID,1.62266,
2012-02-17, 03:44:04,VALID,997.797,VALID,0,VALID,92.9288,VALID,0,VALID,23.8378,VALID,352,VALID,1.23398,
2012-02-17, 03:45:04,VALID,997.76,VALID,0,VALID,92.8448,VALID,0,VALID,23.8165,VALID,336,VALID,1.77852,
2012-02-17, 03:46:04,VALID,997.766,VALID,0,VALID,92.7533,VALID,0,VALID,23.8378,VALID,332,VALID,1.60586,
2012-02-17, 03:47:04,VALID,997.769,VALID,0,VALID,92.7609,VALID,0,VALID,23.836,VALID,349,VALID,1.12734,
2012-02-17, 03:48:04,VALID,997.763,VALID,0,VALID,92.7533,VALID,0,VALID,23.8573,VALID,332,VALID,1.4918,
2012-02-17, 03:49:04,VALID,997.764,VALID,0,VALID,92.6923,VALID,0,VALID,23.8768,VALID,1,VALID,1.21797,
2012-02-17, 03:50:04,VALID,997.777,VALID,0,VALID,92.6846,VALID,0,VALID,23.8573,VALID,349,VALID,0.984766,
2012-02-17, 03:51:04,VALID,997.796,VALID,0,VALID,92.6541,VALID,0,VALID,23.8555,VALID,354,VALID,1.09023,
2012-02-17, 03:52:04,VALID,997.776,VALID,0,VALID,92.6465,VALID,0,VALID,23.8573,VALID,348,VALID,0.953125,